Find Starlink 31904

NORAD ID: 59657 Int'l Des: 2024-084 Owner: SPXS Country: US Constellation: starlink operational
LEOCIRCULAR

Current View

Loading 3D Globe...

About Starlink 31904

Starlink 31904 (NORAD 59657) is a starlink constellation satellite (v2 mini) launched May 6, 2024 by SPXS of US. It operates in LEO, CIRCULAR orbit with a mass of 730.00 kg.

Upcoming Passes

Passes for default location (London). Set your location on the main map for personalized predictions.

Altitude History

Loading altitude history...

Two-Line Element Set

1 59657U 24084D 26236.54503105 .00001027 00000-0 46842-4 0 9990
2 59657 43.0026 173.9128 0001226 269.4347 90.6365 15.27573188130040
Epoch: Aug 24, 2026 • Age: 11 hours

Current Status

Altitude 486.2 km
Apogee / Perigee N/A
Velocity 7.63 km/s
Sub-Earth Point 39.37°N, 106.42°W
Launch Date May 6, 2024
Age 2.2 years
Type internet

Technical Details

Classification Payload
Mass 730.00 kg
Dry Mass 700.00 kg
Total Mass 730.00 kg
Length 0.30 m
Diameter 4.10 m
Span 29.00 m
Shape Box + pan
Manufacturer SPXS
Bus Type Starlink V2M
Phase Status In Orbit
Owner/State SPXS/US

Most Searched